ATLAS 5 CENTAUR DEB, 49343

Orbit data source: Space-Track

ATLAS 5 CENTAUR DEB, 49343 is space debris in HEO originally from a launch on Wed, 17 Oct 2018 UTC launched from the Air Force Eastern Test Range (AFETR). Debris objects in space refer to the collection of defunct objects orbiting the Earth. Examples of debris include non-operational satellites, rocket bodies, and fragments generated from explosions, collisions, or faulty payload assembly.

Not visible in the next 10 days
Identifier
49343, 2018-079EU
Orbit
HEO
Country
Flag of USUS
Related business
Flag of USUnited Launch Alliance/Lockheed Martin (US)
Manufacturer
ULA Decatur
Mission
Spacecraft
Bus & Motor
Unknown
Mass
Unknown
Launch date (UTC)
2018-10-17 (7 years ago)
Launch vehicle
Unknown
Launch site
Air Force Eastern Test Range (AFETR)
Object type
Payload
Rocket body
Debris
Shape & HBR
Unknown shape, 1.1 m
Radar Cross Section
Large (>1 m²)

Expand to show TLE details & history
Last TLE update: 12 hours ago

TLE from 12 hours ago
0 ATLAS 5 CENTAUR DEB
1 49343U 18079EU  26036.28966741 -.00000152  00000-0  00000+0 0  9996
2 49343  12.7894  70.7502 4592146 243.7158  62.5003  1.74645010 28327
Epoch: 2026-02-05T06:57Z
TLE epoch observation values (Epoch: 2026-02-05T06:57:07.264Z)
Latitude
Longitude
-168.86243°
Altitude
22,477.753 km
Speed
3.734 km/s
True Right ascension
04h 43m 26s
True Declination
0° 00' 00"
Sunlit
Object was in daylight at epoch
Visualization orbit readout
Latitude
Unknown
Longitude
Unknown
Altitude
Unknown
Speed
Unknown
Apparent Right ascension
Unknown
Apparent Declination
Unknown
Sunlit
N/A
Visualization observer readout
Local Sidereal Time
21:11:29
Azimuth
Unknown
Elevation
Unknown
Doppler factor
Unknown
Orbital elements
Apogee altitude
36,127.541 km
Perigee altitude
9,374.481 km
Semi-major axis
29,129.148 km
Eccentricity
0.45921
Inclination
12.7894°
RAAN
70.7502°
Arg. of periapsis
243.7158°
True anomaly
116.27035°
Mean anomaly
62.5003°
Eccentric anomaly
88.80564°
Mean motion
0.43657 °/min
Orbital period
824.61 mins
BSTAR
0
Loading maneuver chart data...
Computing Atmospheric mass density...

Documentation

Showing up to 5 results
|